Regional Weather Roundup
Issued by NWS Sioux Falls, SD

Home | Current Version | Previous Version | Graphics & Text | Print | Product List | Glossary On
Versions: 1 2 3 4 5 6 7 8 9 10 11 12 13 14 15 16 17 18 19 20 21 22 23 24 25 26 27 28 29 30 31 32 33 34 35 36 37 38 39 40 41 42 43 44 45 46 47 48 49 50
000
ASUS43 KFSD 190502
RWRFSD

WEATHER ROUNDUP FOR SE SOUTH DAKOTA/SW MINNESOTA/NW IOWA
NATIONAL WEATHER SERVICE SIOUX FALLS SD
1100 PM CST THU DEC 18 2014

NOTE: "FAIR" INDICATES FEW OR NO CLOUDS BELOW 12,000 FEET WITH NO
SIGNIFICANT WEATHER AND OR OBSTRUCTIONS TO VISIBILITY.


SDZ038>040-050-052>070-190600-
SOUTHEAST SOUTH DAKOTA

CITY           SKY/WX    TMP DP  RH WIND       PRES   REMARKS
CHAMBERLAIN    NOT AVBL
HURON          CLOUDY    27  24  89 S7        30.14R WCI  19
MADISON        CLOUDY    25  25 100 S9        30.14S WCI  15
MITCHELL       CLOUDY    28  25  88 S9        30.16R WCI  19
SIOUX FALLS    CLOUDY    27  24  89 S9        30.17S WCI  18
WINNER         FAIR      24  21  88 S10       30.07S WCI  14
YANKTON        CLOUDY    28  25  86 S8        30.20R WCI  20
$$

MNZ071-072-080-081-089-090-097-098-190600-
SOUTHWEST MINNESOTA

CITY           SKY/WX    TMP DP  RH WIND       PRES   REMARKS
FAIRMONT       CLOUDY    25  19  80 S8        30.23R WCI  16
JACKSON        CLOUDY    27  21  80 S5        30.21R WCI  21
LUVERNE        CLOUDY    28  27  93 S8        30.19S WCI  20
MARSHALL       CLOUDY    25  19  80 SE5       30.19S WCI  19
MONTEVIDEO     CLOUDY    21  21 100 S7        30.21S WCI  13
PIPESTONE      CLOUDY    27  25  93 S3        30.16R FOG
REDWOOD FALLS  CLOUDY    24  20  84 SE10      30.22S WCI  14
TRACY          CLOUDY    26  24  91 CALM      30.19S
WINDOM         CLOUDY    25  21  86 CALM      30.20S
WORTHINGTON    CLOUDY    25  21  86 S8        30.19R WCI  16
$$

IAZ001>003-012>014-020>022-031-032-NEZ013-014-SDZ071-190600-
NORTHWEST IOWA

CITY           SKY/WX    TMP DP  RH WIND       PRES   REMARKS
DENISON        CLOUDY    30  28  93 S5        30.22R WCI  25
ESTHERVILLE    CLOUDY    24  21  88 S9        30.21S WCI  14
SIOUX CITY     CLOUDY    30  26  85 S6        30.23R WCI  24
SPENCER        CLOUDY    28  23  81 S8        30.21S WCI  20
$$

ABBREVIATIONS USED IN REMARKS
   TC - TEMPERATURE IN CELSIUS
  WCI - WIND CHILL INDEX
   HX - HEAT INDEX
  VSB - VISIBILITY




USA.gov is the U.S. government's official web portal to all federal, state and local government web resources and services.